SCP
0 0 0 0 0 0 0 0 0 0 0 0 0 0 0 0 0 0 0 0 0 0 0 0 0 0 0 0 0 0 0 0 0 0 0 0 0 0 0 0 0 0 0
0 0 0 0 0 0 0 0 0 0 0 0 0 0 0 0 0 0 0 0 0 0 0 0 0 0 0 0 0 0 0 0 0 0 0 0 0 0 0 0 0 0 0
0 0 0 0 0 0 0 0 0 0 0 0 0 0 0 0 0 0 0 0 0 0 0 0 0 0 0 0 0 0 0 0 0 0 0 0 0 0 0 0 0 0 0
0 0 0 0 0 0 0 0 0 0 0 0 0 0 0 0 0 0 0 0 0 0 0 0 0 0 0 0 0 0 0 0 0 0 0 0 0 0 0 0 0 0 0
0 0 0 0 0 0 0 0 0 0 0 0 0 0 0 0 0 0 0 0 0 0 0 0 0 0 0 0 0 0 0 0 0 0 0 0 0 0 0 0 0 0 0
0 0 0 0 0 0 0 0 0 0 0 0 0 0 0 0 0 0 0 0 0 0 0 0 0 0 0 0 0 0 0 0 0 0 0 0 0 0 0 0 0 0 0
0 0 0 0 0 0 0 0 0 0 0 0 0 0 0 0 0 0 0 0 0 0 0 0 0 0 0 0 0 0 0 0 0 0 0 0 0 0 0 0 0 0 0
0 0 0 0 0 0 0 0 0 0 0 0 0 0 0 0 0 0 0 0 0 0 0 0 0 0 0 0 0 0 0 0 0 0 0 0 0 0 0 0 0 0 0
0 0 0 0 0 0 0 0 0 0 0 0 0 0 0 0 0 0 0 0 0 0 0 0 0 0 0 0 0 0 0 0 0 0 0 0 0 0 0 0 0 0 0
0 0 0 0 -0 0 0 0 0 0 0 0 0 0 0 0 0 0 0 0 0 0 0 0 0 0 0 0 0 0 0 0 0 0 0 0 0 0 0 0 0 0 0
0 0 0 0 0 0 0 0 0 0 0 0 0 0 0 0 0 0 0 0 0 0 0 0 0 0 0 0 0 0 0 0 0 0 0 0 0 0 0 0 0 0 0
0 0 0 0 0 0 0 0 0 0 0 0 0 0 0 0 0 0 0 0 0 0 0 0 0 0 0 0 0 0 0 0 0 0 0 0 0 0 0 0 0 0 0
0 0 0 0 0 0 0 0 0 0 0 0 0 0 0 0 0 0 0 0 0 0 0 0 0 0 0 0 0 0 0 0 0 0 0 0 0 0 0 0 0 0 0
0 0 0 0 0 0 0 0 0 0 0 0 0 0 0 0 0 0 0 0 0 0 0 0 0 0 0 0 0 0 0 0 0 0 0 0 0 0 0 0 0 0 0
0 0 0 0 0 0 0 0 0 0 0 0 0 0 0 0 0 0 0 0 0 0 0 0 0 0 0 0 0 0 0 0 0 0 0 0 0 0 0 0 0 0 0
0 0 0 0 0 0 0 0 0 0 0 0 0 0 0 0 0 0 0 0 0 0 0 0 0 0 0 0 0 0 0 0 0 0 0 0 0 0 0 0 0 0 0
0 0 0 0 0 0 0 0 0 0 0 0 0 0 0 0 0 0 0 0 0 0 0 0 0 0 0 0 0 0 0 0 0 0 0 0 0 0 0 0 0 0 0
0 0 0 0 0 0 0 0 0 0 0 0 0 0 0 0 0 0 0 0 0 0 0 0 0 0 0 0 0 0 0 0 0 0 0 0 0 0 0 0 0 0 0
0 0 0 0 0 0 0 0 0 0 0 0 0 0 0 0 0 0 0 0 0 0 0 0 0 0 0 0 0 0 0 0 0 0 0 0 0 0 0 0 0 0 0
0 0 0 0 0 0 0 0 0 0 0 0 0 0 0 0 0 0 0 0 0 0 0 0 0 0 0 0 0 0 0 0 0 0 0 0 0 0 0 0 0 0 0
0 0 0 0 0 0 0 0 0 0 0 0 0 0 0 0 0 0 0 0 0 0 0 0 0 0 0 0 0 0 0 0 0 0 0 0 0 0 0 0 0 0 0
0 0 0 0 0 0 0 0 0 0 0 0 0 0 0 0 0 0 0 0 0 0 0 0 0 0 0 0 0 0 0 0 0 0 0 0 0 0 0 0 0 0 0
0 0 0 0 0 0 0 0 0 0 0 0 0 0 0 0 0 0 0 0 0 0 0 0 0 0 0 0 0 0 0 0 0 0 0 0 0 0 0 0 0 0 0
0 0 0 0 0 0 0 0 0 0 0 0 0 0 0 0 0 0 0 0 0 0 0 0 0 0 0 0 0 0 0 0 0 0 0 0 0 0 0 0 0 0 0
0 0 0 0 0 0 0 0 0 0 0 0 0 0 0 0 0 0 0 0 0 0 0 0 0 0 0 0 0 0 0 0 0 0 0 0 0 0 0 0 0 0 0
0 0 0 0 0 0 0 0 0 0 0 0 0 0 0 0 0 0 0 0 0 0 0 0 0 0 0 0 0 0 0 0 0 0 0 0 0 0 0 0 0 0 0
Wind_Speed_500mb
22 19 16 13 10 6 5 8 12 15 20 25 30 34 38 41 45 50 56 61 68 71 75 78 79 76 76 75 75 77 79 79 93 96 92 85 83 79 73 72 72 71 76
16 11 7 4 3 7 11 18 24 28 33 37 40 44 46 48 52 57 60 63 67 70 73 78 79 73 75 74 77 78 79 76 85 94 89 88 84 75 71 70 70 67 69
11 7 6 8 11 14 18 22 28 32 37 41 45 48 51 54 56 58 61 63 66 68 71 75 76 73 74 73 73 75 74 78 82 84 89 90 85 78 73 71 69 70 69
8 8 11 15 18 22 25 28 32 35 38 41 44 48 52 55 57 58 59 62 65 66 67 69 69 70 72 73 73 74 72 79 79 81 85 88 87 81 76 70 71 74 69
9 11 13 17 21 24 28 31 35 39 42 45 48 51 54 56 59 64 68 69 70 70 68 66 66 70 72 73 74 77 76 79 82 85 87 91 89 87 86 78 73 70 65
14 17 20 22 26 29 31 33 36 40 43 46 49 52 54 56 58 60 66 71 73 74 74 72 71 71 73 73 72 72 79 81 80 82 83 92 89 88 83 82 73 71 68
20 22 25 29 32 36 39 42 44 46 47 48 50 54 56 57 58 63 65 69 72 74 76 76 75 73 69 66 66 70 75 79 79 78 83 86 84 82 78 77 79 78 82
24 27 30 33 35 37 40 43 46 48 49 52 52 55 59 59 63 64 66 69 71 73 72 74 75 72 65 61 67 73 75 76 77 77 86 83 82 77 67 62 67 70 71
27 30 34 39 41 43 45 49 52 55 54 56 58 59 62 61 62 65 68 71 75 75 72 67 66 68 64 60 70 74 75 77 74 76 76 77 72 65 53 56 67 76 74
33 35 38 43 46 50 54 55 56 60 64 63 64 63 65 68 67 69 72 74 76 77 77 75 63 58 60 63 68 72 78 76 74 70 68 69 61 54 51 52 67 77 74
41 42 45 48 51 54 56 56 62 62 65 67 68 68 68 68 67 67 69 71 74 76 76 77 75 55 56 64 63 68 73 67 63 55 49 51 52 48 47 52 61 68 74
45 48 49 51 53 57 61 61 63 66 70 71 73 75 73 70 68 67 67 63 60 65 71 70 68 61 59 58 56 59 57 52 50 47 45 47 51 48 53 52 52 54 55
53 54 56 59 61 64 69 70 71 70 73 75 75 76 77 75 68 64 62 57 53 54 57 61 61 54 49 50 51 51 47 45 47 45 44 47 48 48 46 47 43 41 37
56 57 59 64 66 66 68 72 74 73 70 70 70 70 71 70 67 55 51 47 42 43 46 45 39 36 39 46 47 40 35 38 40 41 44 48 48 47 47 44 46 45 42
62 65 66 66 67 68 67 67 67 66 62 62 62 63 63 65 55 41 42 43 42 39 34 30 27 30 39 42 33 26 31 31 34 41 43 44 43 44 46 44 40 42 41
64 63 64 67 67 65 65 66 59 59 50 48 50 50 50 46 43 37 36 35 32 24 22 24 28 34 36 26 21 24 26 25 31 30 34 41 43 44 44 40 35 33 35
64 64 65 64 63 61 59 59 63 54 41 38 41 38 37 38 37 34 34 32 21 15 17 22 30 27 19 16 17 20 20 19 20 23 27 34 31 39 37 33 30 31 34
60 60 62 62 59 59 56 55 53 51 50 35 31 35 30 29 30 30 27 21 12 14 16 22 27 25 15 13 13 14 15 11 15 18 18 25 32 31 33 32 32 37 38
58 58 58 60 56 52 51 48 45 41 38 37 28 26 26 24 26 23 19 15 13 11 13 14 16 16 13 10 7 9 10 12 13 15 14 14 17 21 27 33 34 39 42
50 47 50 52 51 47 43 42 37 35 33 31 29 26 23 21 18 17 15 13 14 14 15 15 13 10 7 5 4 5 5 7 10 15 19 22 24 26 29 33 37 38 40
45 42 42 43 43 42 39 35 32 31 30 30 28 29 24 20 16 15 14 11 12 11 11 12 12 12 11 10 8 8 6 4 5 9 14 18 21 24 27 30 33 35 38
44 40 38 38 35 34 33 31 29 27 27 28 29 29 26 22 18 17 16 13 12 9 8 7 8 9 9 8 8 9 10 12 14 16 18 19 21 23 26 29 33 35 38
37 37 34 32 32 30 29 29 27 26 25 25 25 25 23 20 17 15 14 12 11 10 9 9 10 10 11 11 11 13 14 16 18 20 22 23 25 27 28 29 30 32 33
32 31 30 29 28 26 24 22 22 22 23 23 22 22 19 16 14 12 11 11 10 11 12 12 13 13 14 14 15 16 18 19 20 22 24 25 27 28 30 31 32 32 33
27 26 26 25 24 22 21 19 17 16 15 15 15 15 15 13 12 11 11 10 10 12 14 15 17 18 19 20 21 22 23 23 25 26 27 28 29 30 31 32 32 32 33
23 24 24 24 23 22 21 20 18 16 16 15 14 13 13 13 14 15 16 18 20 22 24 24 25 25 26 25 26 26 28 28 29 28 29 29 30 31 32 32 33 33 34
Wind_Direction_500mb
107 110 117 122 130 155 200 250 266 272 277 280 280 280 281 281 281 280 279 279 279 280 279 280 280 278 278 276 277 276 274 272 272 279 278 279 279 275 272 272 267 259 245
96 91 81 54 320 292 281 281 285 288 290 292 292 290 287 284 284 283 281 279 278 278 279 279 278 278 277 278 279 277 274 273 273 278 280 278 278 277 273 270 268 262 252
72 48 2 324 314 304 300 298 297 298 297 298 298 298 296 294 290 287 284 282 279 277 277 276 276 276 275 275 275 276 275 275 273 271 274 274 274 272 271 268 263 258 253
34 3 336 326 323 319 316 314 312 310 308 308 309 308 307 305 304 300 295 291 287 282 279 276 277 274 274 275 274 274 275 275 274 272 270 270 270 269 265 261 254 251 244
15 359 345 337 327 322 317 314 315 315 314 314 311 309 309 309 307 303 299 296 292 290 287 283 280 277 276 275 275 274 270 269 269 270 269 269 267 264 261 257 248 245 238
2 353 347 340 334 330 324 320 317 316 316 313 311 308 306 305 304 303 301 298 294 290 288 286 283 281 279 277 274 270 269 270 267 266 268 269 271 268 264 258 249 228 216
344 338 332 329 327 324 322 321 319 319 320 319 317 314 312 311 308 305 304 301 298 294 289 286 285 284 283 281 276 270 267 267 266 268 267 268 269 268 265 257 247 236 226
338 335 330 326 323 320 319 319 318 319 321 320 319 318 317 317 314 310 307 304 299 296 295 292 288 286 284 280 277 273 269 267 268 268 268 269 267 267 266 266 259 233 220
325 322 320 319 319 318 320 321 320 319 318 318 319 318 316 316 313 311 308 305 301 299 297 294 293 290 287 279 277 276 274 272 272 272 267 263 259 260 255 244 226 212 201
315 316 315 313 313 314 316 316 315 315 315 315 313 312 313 311 310 308 307 305 303 301 299 294 291 289 284 279 276 276 276 276 276 273 264 258 253 249 240 236 228 210 195
304 303 304 304 306 308 309 311 312 312 311 311 310 309 307 307 308 307 306 302 301 301 299 299 300 299 286 283 282 278 278 280 277 274 267 255 243 236 232 227 221 217 207
296 297 297 300 302 304 306 308 309 309 309 308 308 307 309 310 310 310 309 308 306 300 300 300 300 300 291 287 286 281 275 271 271 268 257 242 235 219 209 213 208 207 209
297 297 299 299 299 299 299 301 304 305 305 306 307 308 310 311 312 313 310 308 304 296 294 294 295 294 291 290 292 284 269 262 256 257 243 230 215 207 199 195 201 205 204
301 305 306 304 303 302 302 302 301 302 302 301 302 304 306 308 313 315 311 311 310 305 303 298 295 293 295 302 296 279 260 255 255 247 237 230 211 205 206 200 190 192 194
310 306 302 301 301 299 296 296 295 295 298 298 301 305 308 309 317 320 321 322 323 320 315 315 312 307 309 308 297 277 259 259 248 243 238 212 210 201 190 190 192 190 201
302 302 302 303 303 303 303 300 298 299 300 295 296 297 296 301 308 311 317 319 317 314 325 335 325 316 315 313 300 284 260 260 248 248 235 215 204 197 190 187 198 205 212
301 303 304 305 306 307 307 305 304 302 300 296 291 288 289 297 303 307 312 315 312 323 343 341 336 328 327 312 297 286 265 264 246 240 230 213 208 200 201 201 207 214 223
300 301 302 302 304 305 306 304 302 301 301 300 277 283 289 296 300 307 312 320 313 326 331 335 345 352 347 328 302 280 273 266 242 236 238 215 208 207 208 213 220 226 233
300 301 300 299 301 304 304 301 297 293 290 290 285 278 293 300 301 306 312 313 311 300 314 332 341 348 356 351 334 293 275 270 251 232 187 186 200 216 225 227 233 238 240
302 304 303 302 304 305 305 301 297 287 281 275 280 282 293 302 297 288 293 304 293 288 286 291 304 317 327 336 304 293 266 247 231 230 239 240 237 235 239 244 245 248 250
308 310 307 306 306 306 305 302 296 285 273 269 271 275 286 297 299 286 281 283 279 274 271 267 265 272 273 270 259 247 258 282 284 264 254 249 248 249 248 248 251 253 252
312 312 311 310 310 307 304 299 295 285 269 259 261 268 277 288 289 281 277 279 280 279 279 278 279 278 274 271 271 268 262 261 261 257 257 258 259 258 258 259 260 261 260
312 312 311 311 313 311 305 297 288 277 266 261 264 269 276 280 277 272 274 280 282 290 295 294 290 287 287 285 282 280 280 278 277 275 276 276 275 274 272 272 271 269 268
310 311 311 311 311 309 304 294 284 276 270 268 269 272 276 276 275 275 274 277 282 287 289 291 292 292 292 290 289 287 284 281 279 277 276 276 275 274 274 273 271 270 268
305 309 311 310 308 306 301 296 288 280 272 269 269 269 272 275 279 284 286 290 295 301 305 307 305 302 298 296 294 293 291 290 288 288 289 288 287 285 283 280 277 274 270
304 306 308 307 306 303 301 296 292 289 289 285 281 280 279 281 285 294 306 311 308 304 302 300 300 298 297 297 297 298 298 298 297 295 293 291 288 286 284 282 279 276 272
Wind_Speed_850mb
22 19 16 13 10 6 5 8 12 15 20 25 30 34 38 41 45 50 56 61 68 71 75 78 79 76 76 75 75 77 79 79 93 96 92 85 83 79 73 72 72 71 76
16 11 7 4 3 7 11 18 24 28 33 37 40 44 46 48 52 57 60 63 67 70 73 78 79 73 75 74 77 78 79 76 85 94 89 88 84 75 71 70 70 67 69
11 7 6 8 11 14 18 22 28 32 37 41 45 48 51 54 56 58 61 63 66 68 71 75 76 73 74 73 73 75 74 78 82 84 89 90 85 78 73 71 69 70 69
8 8 11 15 18 22 25 28 32 35 38 41 44 48 52 55 57 58 59 62 65 66 67 69 69 70 72 73 73 74 72 79 79 81 85 88 87 81 76 70 71 74 69
9 11 13 17 21 24 28 31 35 39 42 45 48 51 54 56 59 64 68 69 70 70 68 66 66 70 72 73 74 77 76 79 82 85 87 91 89 87 86 78 73 70 65
14 17 20 22 26 29 31 33 36 40 43 46 49 52 54 56 58 60 66 71 73 74 74 72 71 71 73 73 72 72 79 81 80 82 83 92 89 88 83 82 73 71 68
20 22 25 29 32 36 39 42 44 46 47 48 50 54 56 57 58 63 65 69 72 74 76 76 75 73 69 66 66 70 75 79 79 78 83 86 84 82 78 77 79 78 82
24 27 30 33 35 37 40 43 46 48 49 52 52 55 59 59 63 64 66 69 71 73 72 74 75 72 65 61 67 73 75 76 77 77 86 83 82 77 67 62 67 70 71
27 30 34 39 41 43 45 49 52 55 54 56 58 59 62 61 62 65 68 71 75 75 72 67 66 68 64 60 70 74 75 77 74 76 76 77 72 65 53 56 67 76 74
33 35 38 43 46 50 54 55 56 60 64 63 64 63 65 68 67 69 72 74 76 77 77 75 63 58 60 63 68 72 78 76 74 70 68 69 61 54 51 52 67 77 74
41 42 45 48 51 54 56 56 62 62 65 67 68 68 68 68 67 67 69 71 74 76 76 77 75 55 56 64 63 68 73 67 63 55 49 51 52 48 47 52 61 68 74
45 48 49 51 53 57 61 61 63 66 70 71 73 75 73 70 68 67 67 63 60 65 71 70 68 61 59 58 56 59 57 52 50 47 45 47 51 48 53 52 52 54 55
53 54 56 59 61 64 69 70 71 70 73 75 75 76 77 75 68 64 62 57 53 54 57 61 61 54 49 50 51 51 47 45 47 45 44 47 48 48 46 47 43 41 37
56 57 59 64 66 66 68 72 74 73 70 70 70 70 71 70 67 55 51 47 42 43 46 45 39 36 39 46 47 40 35 38 40 41 44 48 48 47 47 44 46 45 42
62 65 66 66 67 68 67 67 67 66 62 62 62 63 63 65 55 41 42 43 42 39 34 30 27 30 39 42 33 26 31 31 34 41 43 44 43 44 46 44 40 42 41
64 63 64 67 67 65 65 66 59 59 50 48 50 50 50 46 43 37 36 35 32 24 22 24 28 34 36 26 21 24 26 25 31 30 34 41 43 44 44 40 35 33 35
64 64 65 64 63 61 59 59 63 54 41 38 41 38 37 38 37 34 34 32 21 15 17 22 30 27 19 16 17 20 20 19 20 23 27 34 31 39 37 33 30 31 34
60 60 62 62 59 59 56 55 53 51 50 35 31 35 30 29 30 30 27 21 12 14 16 22 27 25 15 13 13 14 15 11 15 18 18 25 32 31 33 32 32 37 38
58 58 58 60 56 52 51 48 45 41 38 37 28 26 26 24 26 23 19 15 13 11 13 14 16 16 13 10 7 9 10 12 13 15 14 14 17 21 27 33 34 39 42
50 47 50 52 51 47 43 42 37 35 33 31 29 26 23 21 18 17 15 13 14 14 15 15 13 10 7 5 4 5 5 7 10 15 19 22 24 26 29 33 37 38 40
45 42 42 43 43 42 39 35 32 31 30 30 28 29 24 20 16 15 14 11 12 11 11 12 12 12 11 10 8 8 6 4 5 9 14 18 21 24 27 30 33 35 38
44 40 38 38 35 34 33 31 29 27 27 28 29 29 26 22 18 17 16 13 12 9 8 7 8 9 9 8 8 9 10 12 14 16 18 19 21 23 26 29 33 35 38
37 37 34 32 32 30 29 29 27 26 25 25 25 25 23 20 17 15 14 12 11 10 9 9 10 10 11 11 11 13 14 16 18 20 22 23 25 27 28 29 30 32 33
32 31 30 29 28 26 24 22 22 22 23 23 22 22 19 16 14 12 11 11 10 11 12 12 13 13 14 14 15 16 18 19 20 22 24 25 27 28 30 31 32 32 33
27 26 26 25 24 22 21 19 17 16 15 15 15 15 15 13 12 11 11 10 10 12 14 15 17 18 19 20 21 22 23 23 25 26 27 28 29 30 31 32 32 32 33
23 24 24 24 23 22 21 20 18 16 16 15 14 13 13 13 14 15 16 18 20 22 24 24 25 25 26 25 26 26 28 28 29 28 29 29 30 31 32 32 33 33 34
Wind_Direction_850mb
107 110 117 122 130 155 200 250 266 272 277 280 280 280 281 281 281 280 279 279 279 280 279 280 280 278 278 276 277 276 274 272 272 279 278 279 279 275 272 272 267 259 245
96 91 81 54 320 292 281 281 285 288 290 292 292 290 287 284 284 283 281 279 278 278 279 279 278 278 277 278 279 277 274 273 273 278 280 278 278 277 273 270 268 262 252
72 48 2 324 314 304 300 298 297 298 297 298 298 298 296 294 290 287 284 282 279 277 277 276 276 276 275 275 275 276 275 275 273 271 274 274 274 272 271 268 263 258 253
34 3 336 326 323 319 316 314 312 310 308 308 309 308 307 305 304 300 295 291 287 282 279 276 277 274 274 275 274 274 275 275 274 272 270 270 270 269 265 261 254 251 244
15 359 345 337 327 322 317 314 315 315 314 314 311 309 309 309 307 303 299 296 292 290 287 283 280 277 276 275 275 274 270 269 269 270 269 269 267 264 261 257 248 245 238
2 353 347 340 334 330 324 320 317 316 316 313 311 308 306 305 304 303 301 298 294 290 288 286 283 281 279 277 274 270 269 270 267 266 268 269 271 268 264 258 249 228 216
344 338 332 329 327 324 322 321 319 319 320 319 317 314 312 311 308 305 304 301 298 294 289 286 285 284 283 281 276 270 267 267 266 268 267 268 269 268 265 257 247 236 226
338 335 330 326 323 320 319 319 318 319 321 320 319 318 317 317 314 310 307 304 299 296 295 292 288 286 284 280 277 273 269 267 268 268 268 269 267 267 266 266 259 233 220
325 322 320 319 319 318 320 321 320 319 318 318 319 318 316 316 313 311 308 305 301 299 297 294 293 290 287 279 277 276 274 272 272 272 267 263 259 260 255 244 226 212 201
315 316 315 313 313 314 316 316 315 315 315 315 313 312 313 311 310 308 307 305 303 301 299 294 291 289 284 279 276 276 276 276 276 273 264 258 253 249 240 236 228 210 195
304 303 304 304 306 308 309 311 312 312 311 311 310 309 307 307 308 307 306 302 301 301 299 299 300 299 286 283 282 278 278 280 277 274 267 255 243 236 232 227 221 217 207
296 297 297 300 302 304 306 308 309 309 309 308 308 307 309 310 310 310 309 308 306 300 300 300 300 300 291 287 286 281 275 271 271 268 257 242 235 219 209 213 208 207 209
297 297 299 299 299 299 299 301 304 305 305 306 307 308 310 311 312 313 310 308 304 296 294 294 295 294 291 290 292 284 269 262 256 257 243 230 215 207 199 195 201 205 204
301 305 306 304 303 302 302 302 301 302 302 301 302 304 306 308 313 315 311 311 310 305 303 298 295 293 295 302 296 279 260 255 255 247 237 230 211 205 206 200 190 192 194
310 306 302 301 301 299 296 296 295 295 298 298 301 305 308 309 317 320 321 322 323 320 315 315 312 307 309 308 297 277 259 259 248 243 238 212 210 201 190 190 192 190 201
302 302 302 303 303 303 303 300 298 299 300 295 296 297 296 301 308 311 317 319 317 314 325 335 325 316 315 313 300 284 260 260 248 248 235 215 204 197 190 187 198 205 212
301 303 304 305 306 307 307 305 304 302 300 296 291 288 289 297 303 307 312 315 312 323 343 341 336 328 327 312 297 286 265 264 246 240 230 213 208 200 201 201 207 214 223
300 301 302 302 304 305 306 304 302 301 301 300 277 283 289 296 300 307 312 320 313 326 331 335 345 352 347 328 302 280 273 266 242 236 238 215 208 207 208 213 220 226 233
300 301 300 299 301 304 304 301 297 293 290 290 285 278 293 300 301 306 312 313 311 300 314 332 341 348 356 351 334 293 275 270 251 232 187 186 200 216 225 227 233 238 240
302 304 303 302 304 305 305 301 297 287 281 275 280 282 293 302 297 288 293 304 293 288 286 291 304 317 327 336 304 293 266 247 231 230 239 240 237 235 239 244 245 248 250
308 310 307 306 306 306 305 302 296 285 273 269 271 275 286 297 299 286 281 283 279 274 271 267 265 272 273 270 259 247 258 282 284 264 254 249 248 249 248 248 251 253 252
312 312 311 310 310 307 304 299 295 285 269 259 261 268 277 288 289 281 277 279 280 279 279 278 279 278 274 271 271 268 262 261 261 257 257 258 259 258 258 259 260 261 260
312 312 311 311 313 311 305 297 288 277 266 261 264 269 276 280 277 272 274 280 282 290 295 294 290 287 287 285 282 280 280 278 277 275 276 276 275 274 272 272 271 269 268
310 311 311 311 311 309 304 294 284 276 270 268 269 272 276 276 275 275 274 277 282 287 289 291 292 292 292 290 289 287 284 281 279 277 276 276 275 274 274 273 271 270 268
305 309 311 310 308 306 301 296 288 280 272 269 269 269 272 275 279 284 286 290 295 301 305 307 305 302 298 296 294 293 291 290 288 288 289 288 287 285 283 280 277 274 270
304 306 308 307 306 303 301 296 292 289 289 285 281 280 279 281 285 294 306 311 308 304 302 300 300 298 297 297 297 298 298 298 297 295 293 291 288 286 284 282 279 276 272